Погода в Струмице

Северная Македония     41°26′15″N   22°38′34″E
темп.,
°C
ветер,
м/с
пор.,
м/с
влажн.,
%
обл.,
%
осадки,
мм/ч
давл.,
гПа
погр.,
м
2 августа, пн
пн223:00+23в11390 0.0 101312
02:00+23всв22390 0.0 101313
05:00+23в22390 0.0 101215
08:00+31ю22250 0.0 1012355
11:00+37зюз411140 0.0 10113191
14:00+40з913948 0.0 10095208
17:00+38зсз1112102 0.0 10094649
20:00+30сз510150 0.0 1011245
3 августа, вт
вт323:00+25с33230 0.0 101321
02:00+23св22290 0.0 101312
05:00+22св22310 0.0 101311
08:00+29з33200 0.0 1014506
11:00+34з57144 0.0 10142331
14:00+38зсз4101199 0.0 10123985
17:00+36зсз12111277 0.0 10113599
20:00+27сз332499 0.0 101422
4 августа, ср
ср423:00+25ссв212799 0.0 101412
02:00+23св11323 0.0 101411
05:00+21ссз22370 0.0 101515
08:00+29зсз34230 0.0 1015844
11:00+34з57160 0.0 10142422
14:00+37зсз48140 0.0 10133495
17:00+37сз39122 0.0 10113989
20:00+28вюв12226 0.0 101215
5 августа, чт
чт523:00+25св22280 0.0 101411
02:00+23всв22310 0.0 101412
05:00+22в33370 0.0 101420
08:00+29ююв23275 0.0 1013421
11:00+36ююз44175 0.0 10121616
14:00+39ююз551345 0.0 10083096
17:00+25всв3442100 1.1 100988
20:00+24юв224412 1.1 100921
6 августа, пт
пт623:00+23всв22423 0.0 100812
02:00+22в334230 0.0 100726
05:00+22в3347100 0.0 100642
08:00+25ююв1142100 0.0 1006235
11:00+31зюз3327100 0.0 10051535
14:00+34з65160 0.0 10033407
17:00+32сз552194 0.1 10021943
20:00+19ссв446635 0.4 100671